| time (UTC) | temp F | wind direction | speed MPH | gust MPH | rain 1hr in | rain 24hr in | rain mn in | humidity % | barometer mb |
| 20260503002056 | 57 | 117 | 1.0 | 2.0 | 0.00 | 1.06 | 0.01 | 93 | 1011.1 |
| 20260503001532 | 57 | 204 | 1.0 | 2.0 | 0.00 | 1.06 | 0.01 | 94 | 1011.2 |
| 20260503001029 | 57 | 151 | 1.0 | 3.0 | 0.00 | 1.06 | 0.01 | 93 | 1011.1 |
| 20260503000544 | 57 | 88 | 0.0 | 3.0 | 0.00 | 1.06 | 0.01 | 93 | 1011.2 |
| 20260503000039 | 57 | 76 | 1.0 | 3.0 | 0.00 | 1.06 | 0.01 | 93 | 1011.2 |
| 20260502235601 | 57 | 90 | 1.0 | 5.0 | 0.00 | 1.06 | 0.01 | 93 | 1011.3 |
| 20260502235049 | 57 | 103 | 1.0 | 3.0 | 0.00 | 1.06 | 0.01 | 93 | 1011.4 |
| 20260502234543 | 57 | 98 | 2.0 | 3.0 | 0.00 | 1.06 | 0.01 | 93 | 1011.5 |
| 20260502234027 | 57 | 83 | 1.0 | 3.0 | 0.00 | 1.06 | 0.01 | 93 | 1011.7 |
| 20260502233537 | 57 | 94 | 1.0 | 3.0 | 0.00 | 1.06 | 0.01 | 93 | 1011.8 |
| 20260502233024 | 57 | 124 | 1.0 | 2.0 | 0.00 | 1.06 | 0.01 | 93 | 1011.8 |
| 20260502232534 | 57 | 130 | 0.0 | 3.0 | 0.00 | 1.06 | 0.01 | 93 | 1011.8 |
| 20260502232052 | 57 | 94 | 1.0 | 3.0 | 0.00 | 1.06 | 0.01 | 93 | 1011.8 |
| 20260502231550 | 57 | 124 | 1.0 | 3.0 | 0.00 | 1.06 | 0.01 | 93 | 1011.8 |
| 20260502231104 | 57 | 104 | 1.0 | 3.0 | 0.00 | 1.06 | 0.01 | 93 | 1011.8 |
| 20260502230601 | 57 | 90 | 1.0 | 3.0 | 0.00 | 1.06 | 0.01 | 93 | 1011.8 |
| 20260502230054 | 57 | 101 | 1.0 | 3.0 | 0.04 | 1.06 | 0.01 | 93 | 1011.8 |
| 20260502225546 | 57 | 93 | 2.0 | 5.0 | 0.08 | 1.06 | 0.01 | 93 | 1011.9 |
| 20260502225104 | 57 | 62 | 2.0 | 5.0 | 0.16 | 1.06 | 0.01 | 93 | 1011.9 |
| 20260502224551 | 57 | 49 | 1.0 | 3.0 | 0.28 | 1.06 | 0.01 | 93 | 1012.0 |
| 20260502224048 | 57 | 129 | 0.0 | 3.0 | 0.35 | 1.06 | 0.01 | 92 | 1012.1 |
| 20260502223533 | 57 | 140 | 1.0 | 3.0 | 0.39 | 1.06 | 0.01 | 92 | 1012.1 |
| 20260502223103 | 57 | 192 | 0.0 | 2.0 | 0.47 | 1.06 | 0.01 | 92 | 1012.1 |
| 20260502222530 | 56 | 192 | 0.0 | 2.0 | 0.55 | 1.06 | 0.01 | 92 | 1012.0 |
| 20260502222052 | 56 | 115 | 1.0 | 3.0 | 0.63 | 1.06 | 0.01 | 92 | 1011.9 |
| 20260502221549 | 56 | 86 | 1.0 | 6.0 | 0.83 | 1.06 | 0.01 | 91 | 1012.1 |
| 20260502221035 | 57 | 50 | 3.0 | 8.0 | 0.94 | 1.06 | 0.01 | 91 | 1012.1 |
| 20260502220541 | 57 | 92 | 2.0 | 9.0 | 1.02 | 1.06 | 0.01 | 91 | 1012.2 |
| 20260502220037 | 57 | 19 | 4.0 | 9.0 | 1.02 | 1.02 | 0.00 | 91 | 1012.0 |
| 20260502215547 | 57 | 70 | 3.0 | 7.0 | 0.98 | 0.98 | 0.20 | 91 | 1012.2 |
| 20260502215043 | 57 | 115 | 4.0 | 9.0 | 0.91 | 0.91 | 0.18 | 90 | 1012.4 |
| 20260502214538 | 57 | 68 | 3.0 | 9.0 | 0.79 | 0.79 | 0.16 | 90 | 1012.4 |
| 20260502214028 | 58 | 60 | 3.0 | 7.0 | 0.71 | 0.71 | 0.14 | 89 | 1012.7 |
| 20260502213602 | 58 | 94 | 3.0 | 7.0 | 0.63 | 0.63 | 0.13 | 89 | 1013.1 |
| 20260502213031 | 58 | 97 | 2.0 | 4.0 | 0.55 | 0.55 | 0.11 | 88 | 1013.3 |
| 20260502212541 | 58 | 78 | 2.0 | 3.0 | 0.51 | 0.51 | 0.10 | 87 | 1013.5 |
| 20260502212059 | 59 | 38 | 1.0 | 3.0 | 0.43 | 0.43 | 0.09 | 85 | 1013.9 |
| 20260502211554 | 59 | 94 | 2.0 | 7.0 | 0.20 | 0.20 | 0.04 | 81 | 1014.1 |
| 20260502211041 | 60 | 186 | 3.0 | 7.0 | 0.08 | 0.08 | 0.02 | 77 | 1014.3 |
| 20260502210538 | 61 | 227 | 3.0 | 27.0 | 0.04 | 0.04 | 0.01 | 72 | 1014.2 |
| 20260502210026 | 61 | 222 | 10.0 | 27.0 | 0.00 | 0.00 | 0.00 | 69 | 1014.4 |
| 20260502205555 | 61 | 180 | 5.0 | 9.0 | 0.00 | 0.00 | 0.00 | 66 | 1013.9 |
| 20260502205022 | 61 | 23 | 4.0 | 10.0 | 0.00 | 0.00 | 0.00 | 65 | 1012.5 |
| 20260502204546 | 61 | 326 | 2.0 | 7.0 | 0.00 | 0.00 | 0.00 | 65 | 1012.5 |
| 20260502204058 | 61 | 37 | 3.0 | 7.0 | 0.00 | 0.00 | 0.00 | 65 | 1012.5 |
| 20260502203544 | 61 | 76 | 2.0 | 6.0 | 0.00 | 0.00 | 0.00 | 65 | 1012.6 |
| 20260502203028 | 61 | 5 | 2.0 | 8.0 | 0.00 | 0.00 | 0.00 | 65 | 1012.6 |
| 20260502202612 | 61 | 55 | 3.0 | 8.0 | 0.00 | 0.00 | 0.00 | 64 | 1012.7 |
| 20260502202027 | 61 | 83 | 2.0 | 4.0 | 0.00 | 0.00 | 0.00 | 64 | 1012.8 |
| 20260502201557 | 61 | 67 | 2.0 | 4.0 | 0.00 | 0.00 | 0.00 | 64 | 1012.8 |
| 20260502201037 | 60 | 40 | 2.0 | 5.0 | 0.00 | 0.00 | 0.00 | 67 | 1012.8 |
| 20260502200529 | 60 | 28 | 2.0 | 5.0 | 0.00 | 0.00 | 0.00 | 68 | 1012.9 |
| 20260502200044 | 60 | 26 | 2.0 | 3.0 | 0.00 | 0.00 | 0.00 | 68 | 1013.0 |
| 20260502195544 | 60 | 360 | 1.0 | 3.0 | 0.00 | 0.00 | 0.00 | 68 | 1013.0 |
| 20260502195033 | 60 | 9 | 1.0 | 2.0 | 0.00 | 0.00 | 0.00 | 68 | 1013.0 |
| 20260502194534 | 60 | 9 | 1.0 | 2.0 | 0.00 | 0.00 | 0.00 | 67 | 1013.0 |
| 20260502194052 | 60 | 9 | 0.0 | 1.0 | 0.00 | 0.00 | 0.00 | 67 | 1013.0 |
| 20260502193545 | 60 | 9 | 0.0 | 1.0 | 0.00 | 0.00 | 0.00 | 67 | 1013.1 |
| 20260502193033 | 60 | 9 | 0.0 | 2.0 | 0.00 | 0.00 | 0.00 | 66 | 1013.1 |
| 20260502192556 | 61 | 9 | 1.0 | 2.0 | 0.00 | 0.00 | 0.00 | 65 | 1013.1 |
| 20260502192035 | 61 | 9 | 1.0 | 2.0 | 0.00 | 0.00 | 0.00 | 65 | 1013.1 |
| 20260502191537 | 61 | 17 | 0.0 | 2.0 | 0.00 | 0.00 | 0.00 | 65 | 1013.2 |
| 20260502191028 | 61 | 17 | 0.0 | 2.0 | 0.00 | 0.00 | 0.00 | 64 | 1013.2 |
| 20260502190557 | 61 | 17 | 1.0 | 2.0 | 0.00 | 0.00 | 0.00 | 63 | 1013.2 |
| 20260502190103 | 62 | 17 | 1.0 | 4.0 | 0.00 | 0.00 | 0.00 | 63 | 1013.3 |
| 20260502185535 | 62 | 17 | 2.0 | 5.0 | 0.00 | 0.00 | 0.00 | 63 | 1013.2 |
| 20260502185032 | 62 | 5 | 2.0 | 5.0 | 0.00 | 0.00 | 0.00 | 63 | 1013.2 |
| 20260502184531 | 63 | 19 | 2.0 | 5.0 | 0.00 | 0.00 | 0.00 | 62 | 1013.2 |
| 20260502184042 | 63 | 14 | 1.0 | 5.0 | 0.00 | 0.00 | 0.00 | 61 | 1013.2 |
| 20260502183604 | 63 | 13 | 2.0 | 6.0 | 0.00 | 0.00 | 0.00 | 62 | 1013.2 |
| 20260502183038 | 63 | 315 | 2.0 | 5.0 | 0.00 | 0.00 | 0.00 | 61 | 1013.2 |
| 20260502182618 | 63 | 360 | 3.0 | 5.0 | 0.00 | 0.00 | 0.00 | 61 | 1013.3 |
| 20260502182041 | 63 | 17 | 2.0 | 5.0 | 0.00 | 0.00 | 0.00 | 61 | 1013.2 |
| 20260502181556 | 64 | 9 | 1.0 | 3.0 | 0.00 | 0.00 | 0.00 | 61 | 1013.3 |
| 20260502181051 | 64 | 303 | 2.0 | 4.0 | 0.00 | 0.00 | 0.00 | 60 | 1013.2 |
| 20260502180535 | 65 | 333 | 1.0 | 5.0 | 0.00 | 0.00 | 0.00 | 58 | 1013.2 |
| 20260502164038 | 70 | 20 | 1.0 | 8.0 | 0.00 | 0.00 | 0.00 | 54 | 1014.1 |
| 20260502163602 | 70 | 30 | 2.0 | 7.0 | 0.00 | 0.00 | 0.00 | 54 | 1014.2 |
| 20260502163050 | 71 | 320 | 2.0 | 7.0 | 0.00 | 0.00 | 0.00 | 53 | 1014.2 |
| 20260502162539 | 71 | 334 | 1.0 | 4.0 | 0.00 | 0.00 | 0.00 | 54 | 1014.3 |
| 20260502162028 | 71 | 355 | 2.0 | 6.0 | 0.00 | 0.00 | 0.00 | 53 | 1014.3 |
| 20260502161548 | 72 | 320 | 2.0 | 6.0 | 0.00 | 0.00 | 0.00 | 51 | 1014.4 |
| 20260502161039 | 72 | 319 | 1.0 | 3.0 | 0.00 | 0.00 | 0.00 | 53 | 1014.4 |
| 20260502160541 | 72 | 9 | 1.0 | 3.0 | 0.00 | 0.00 | 0.00 | 54 | 1014.5 |
| 20260502151533 | 72 | 244 | 2.0 | 5.0 | 0.00 | 0.00 | 0.00 | 56 | 1014.8 |
| 20260502151116 | 72 | 211 | 2.0 | 5.0 | 0.00 | 0.00 | 0.00 | 57 | 1014.9 |
| 20260502150553 | 72 | 225 | 2.0 | 4.0 | 0.00 | 0.00 | 0.00 | 57 | 1014.9 |
| 20260502130602 | 72 | 148 | 4.0 | 6.0 | 0.00 | 0.00 | 0.00 | 59 | 1016.3 |
| 20260502123549 | 71 | 242 | 5.0 | 9.0 | 0.00 | 0.00 | 0.00 | 63 | 1016.5 |
| 20260502123032 | 72 | 227 | 5.0 | 9.0 | 0.00 | 0.00 | 0.00 | 61 | 1016.5 |
| 20260502122546 | 72 | 284 | 2.0 | 7.0 | 0.00 | 0.00 | 0.00 | 64 | 1016.6 |
| 20260502122044 | 71 | 333 | 3.0 | 7.0 | 0.00 | 0.00 | 0.00 | 64 | 1016.7 |
| 20260502121532 | 71 | 221 | 3.0 | 10.0 | 0.00 | 0.00 | 0.00 | 64 | 1016.7 |
| 20260502121047 | 71 | 193 | 4.0 | 10.0 | 0.00 | 0.00 | 0.00 | 63 | 1016.7 |
| 20260502120557 | 71 | 290 | 2.0 | 7.0 | 0.00 | 0.00 | 0.00 | 68 | 1016.7 |
| 20260502115622 | 69 | 191 | 3.0 | 9.0 | 0.00 | 0.00 | 0.00 | 67 | 1016.9 |
| 20260502115044 | 70 | 221 | 5.0 | 9.0 | 0.00 | 0.00 | 0.00 | 65 | 1016.9 |
| 20260502114536 | 70 | 254 | 4.0 | 10.0 | 0.00 | 0.00 | 0.00 | 65 | 1016.8 |
| 20260502114031 | 70 | 159 | 5.0 | 10.0 | 0.00 | 0.00 | 0.00 | 65 | 1016.9 |
| 20260502113559 | 71 | 224 | 4.0 | 10.0 | 0.00 | 0.00 | 0.00 | 65 | 1017.1 |
| 20260502113044 | 71 | 227 | 3.0 | 10.0 | 0.00 | 0.00 | 0.00 | 68 | 1017.0 |
| 20260502112608 | 70 | 225 | 4.0 | 9.0 | 0.00 | 0.00 | 0.00 | 69 | 1017.1 |
| 20260502112039 | 70 | 203 | 4.0 | 9.0 | 0.00 | 0.00 | 0.00 | 67 | 1017.1 |
| 20260502111626 | 68 | 173 | 5.0 | 10.0 | 0.00 | 0.00 | 0.00 | 70 | 1017.2 |
| 20260502111051 | 68 | 216 | 6.0 | 10.0 | 0.00 | 0.00 | 0.00 | 71 | 1017.2 |
| 20260502110557 | 68 | 195 | 4.0 | 8.0 | 0.00 | 0.00 | 0.00 | 71 | 1017.2 |
| 20260502110119 | 68 | 121 | 2.0 | 10.0 | 0.00 | 0.00 | 0.00 | 72 | 1017.2 |
| 20260502105543 | 68 | 207 | 3.0 | 10.0 | 0.00 | 0.00 | 0.00 | 71 | 1017.2 |
| 20260502105051 | 67 | 267 | 3.0 | 9.0 | 0.00 | 0.00 | 0.00 | 73 | 1017.3 |
| 20260502104539 | 67 | 169 | 4.0 | 10.0 | 0.00 | 0.00 | 0.00 | 72 | 1017.3 |
| 20260502104037 | 67 | 188 | 4.0 | 10.0 | 0.00 | 0.00 | 0.00 | 72 | 1017.3 |
| 20260502103535 | 67 | 180 | 4.0 | 9.0 | 0.00 | 0.00 | 0.00 | 72 | 1017.3 |
| 20260502103034 | 67 | 211 | 4.0 | 9.0 | 0.00 | 0.00 | 0.00 | 71 | 1017.4 |
| 20260502102625 | 67 | 206 | 2.0 | 7.0 | 0.00 | 0.00 | 0.00 | 72 | 1017.3 |
| 20260502102041 | 67 | 217 | 4.0 | 7.0 | 0.00 | 0.00 | 0.00 | 72 | 1017.3 |
| 20260502101058 | 67 | 218 | 4.0 | 7.0 | 0.00 | 0.00 | 0.00 | 73 | 1017.4 |
| 20260502100544 | 67 | 220 | 4.0 | 9.0 | 0.00 | 0.00 | 0.00 | 72 | 1017.4 |
| 20260502091108 | 67 | 171 | 4.0 | 7.0 | 0.00 | 0.00 | 0.00 | 71 | 1017.6 |
| 20260502090534 | 67 | 254 | 3.0 | 7.0 | 0.00 | 0.00 | 0.00 | 74 | 1017.6 |
| 20260502071027 | 58 | 250 | 0.0 | 2.0 | 0.00 | 0.00 | 0.00 | 81 | 1017.1 |
| 20260502070539 | 58 | 250 | 0.0 | 2.0 | 0.00 | 0.00 | 0.00 | 80 | 1017.1 |
| 20260502070100 | 59 | 250 | 0.0 | 2.0 | 0.00 | 0.00 | 0.00 | 78 | 1017.3 |
| 20260502065547 | 59 | 250 | 1.0 | 3.0 | 0.00 | 0.00 | 0.00 | 73 | 1017.5 |
| 20260502065039 | 59 | 234 | 2.0 | 3.0 | 0.00 | 0.00 | 0.00 | 73 | 1017.7 |
| 20260502064554 | 59 | 211 | 0.0 | 4.0 | 0.00 | 0.00 | 0.00 | 71 | 1017.7 |
| 20260502064039 | 59 | 241 | 1.0 | 5.0 | 0.00 | 0.00 | 0.00 | 69 | 1017.7 |
| 20260502063621 | 60 | 221 | 3.0 | 6.0 | 0.00 | 0.00 | 0.00 | 69 | 1017.7 |
| 20260502063047 | 60 | 207 | 2.0 | 4.0 | 0.00 | 0.00 | 0.00 | 68 | 1017.7 |
| 20260502062547 | 59 | 198 | 1.0 | 3.0 | 0.00 | 0.00 | 0.00 | 68 | 1017.6 |
| 20260502062030 | 59 | 225 | 0.0 | 2.0 | 0.00 | 0.00 | 0.00 | 68 | 1017.6 |
| 20260502061038 | 59 | 225 | 1.0 | 3.0 | 0.00 | 0.00 | 0.00 | 69 | 1017.6 |
| 20260502060539 | 58 | 213 | 1.0 | 3.0 | 0.00 | 0.00 | 0.00 | 69 | 1017.6 |
| 20260502055553 | 57 | 178 | 1.0 | 3.0 | 0.00 | 0.00 | 0.00 | 70 | 1017.6 |
| 20260502055045 | 57 | 205 | 0.0 | 4.0 | 0.00 | 0.00 | 0.00 | 71 | 1017.5 |
| 20260502054542 | 57 | 204 | 1.0 | 3.0 | 0.00 | 0.00 | 0.00 | 71 | 1017.6 |
| 20260502054030 | 57 | 235 | 2.0 | 3.0 | 0.00 | 0.00 | 0.00 | 71 | 1017.6 |
| 20260502053616 | 56 | 189 | 1.0 | 3.0 | 0.00 | 0.00 | 0.00 | 72 | 1017.5 |
| 20260502053042 | 56 | 189 | 1.0 | 3.0 | 0.00 | 0.00 | 0.00 | 72 | 1017.5 |
| 20260502052542 | 56 | 188 | 0.0 | 1.0 | 0.00 | 0.00 | 0.00 | 72 | 1017.4 |
| 20260502052050 | 55 | 188 | 0.0 | 2.0 | 0.00 | 0.00 | 0.00 | 71 | 1017.4 |
| 20260502051534 | 54 | 189 | 1.0 | 2.0 | 0.00 | 0.00 | 0.00 | 71 | 1017.4 |
| 20260502051102 | 55 | 180 | 0.0 | 2.0 | 0.00 | 0.00 | 0.00 | 70 | 1017.3 |
| 20260502050543 | 55 | 180 | 1.0 | 2.0 | 0.00 | 0.00 | 0.00 | 67 | 1017.4 |
| 20260502050034 | 55 | 207 | 1.0 | 5.0 | 0.00 | 0.00 | 0.00 | 67 | 1017.4 |
| 20260502045540 | 55 | 209 | 2.0 | 5.0 | 0.00 | 0.00 | 0.00 | 67 | 1017.5 |
| 20260502045059 | 54 | 184 | 3.0 | 5.0 | 0.00 | 0.00 | 0.00 | 68 | 1017.6 |
| 20260502044535 | 53 | 243 | 2.0 | 5.0 | 0.00 | 0.00 | 0.00 | 71 | 1017.5 |
| 20260502044114 | 53 | 196 | 2.0 | 4.0 | 0.00 | 0.00 | 0.00 | 73 | 1017.4 |
| 20260502043534 | 52 | 218 | 2.0 | 3.0 | 0.00 | 0.00 | 0.00 | 76 | 1017.4 |
| 20260502043038 | 52 | 194 | 1.0 | 3.0 | 0.00 | 0.00 | 0.00 | 77 | 1017.4 |
| 20260502042545 | 51 | 194 | 0.0 | 1.0 | 0.00 | 0.00 | 0.00 | 76 | 1017.3 |
| 20260502042052 | 51 | 194 | 0.0 | 1.0 | 0.00 | 0.00 | 0.00 | 76 | 1017.3 |
| 20260502041555 | 51 | 194 | 0.0 | 1.0 | 0.00 | 0.00 | 0.00 | 75 | 1017.3 |
| 20260502041030 | 51 | 194 | 0.0 | 1.0 | 0.00 | 0.00 | 0.00 | 75 | 1017.3 |
| 20260502040553 | 51 | 194 | 0.0 | 1.0 | 0.00 | 0.00 | 0.00 | 76 | 1017.4 |
| 20260502040036 | 51 | 194 | 0.0 | 2.0 | 0.00 | 0.00 | 0.00 | 75 | 1017.5 |
| 20260502035619 | 51 | 194 | 1.0 | 2.0 | 0.00 | 0.00 | 0.00 | 74 | 1017.4 |
| 20260502035055 | 51 | 194 | 1.0 | 2.0 | 0.00 | 0.00 | 0.00 | 74 | 1017.5 |
| 20260502034543 | 51 | 182 | 1.0 | 2.0 | 0.00 | 0.00 | 0.00 | 74 | 1017.5 |
| 20260502034103 | 51 | 182 | 1.0 | 2.0 | 0.00 | 0.00 | 0.00 | 73 | 1017.5 |
| 20260502033559 | 51 | 203 | 1.0 | 2.0 | 0.00 | 0.00 | 0.00 | 73 | 1017.5 |
| 20260502033035 | 51 | 203 | 0.0 | 2.0 | 0.00 | 0.00 | 0.00 | 72 | 1017.6 |
| 20260502032540 | 51 | 203 | 1.0 | 3.0 | 0.00 | 0.00 | 0.00 | 72 | 1017.6 |
| 20260502032047 | 51 | 138 | 1.0 | 5.0 | 0.00 | 0.00 | 0.00 | 72 | 1017.5 |
| 20260502031544 | 51 | 190 | 1.0 | 5.0 | 0.00 | 0.00 | 0.00 | 74 | 1017.6 |
| 20260502031027 | 51 | 165 | 1.0 | 2.0 | 0.00 | 0.00 | 0.00 | 74 | 1017.5 |
| 20260502030617 | 51 | 128 | 0.0 | 2.0 | 0.00 | 0.00 | 0.00 | 72 | 1017.5 |
| 20260502030033 | 51 | 128 | 0.0 | 2.0 | 0.00 | 0.00 | 0.00 | 72 | 1017.4 |
| 20260502025545 | 52 | 128 | 0.0 | 2.0 | 0.00 | 0.00 | 0.00 | 71 | 1017.5 |
| 20260502025029 | 52 | 128 | 0.0 | 2.0 | 0.00 | 0.00 | 0.00 | 70 | 1017.6 |
| 20260502024535 | 52 | 128 | 1.0 | 2.0 | 0.00 | 0.00 | 0.00 | 70 | 1017.6 |
| 20260502024050 | 52 | 157 | 1.0 | 2.0 | 0.00 | 0.00 | 0.00 | 70 | 1017.8 |
| 20260502023607 | 52 | 194 | 1.0 | 2.0 | 0.00 | 0.00 | 0.00 | 70 | 1017.9 |
| 20260502023044 | 52 | 164 | 0.0 | 2.0 | 0.00 | 0.00 | 0.00 | 70 | 1017.9 |
| 20260502022542 | 53 | 149 | 1.0 | 2.0 | 0.00 | 0.00 | 0.00 | 69 | 1017.8 |
| 20260502022036 | 53 | 92 | 1.0 | 3.0 | 0.00 | 0.00 | 0.00 | 68 | 1017.9 |
| 20260502021547 | 53 | 154 | 1.0 | 3.0 | 0.00 | 0.00 | 0.00 | 67 | 1017.9 |
| 20260502021040 | 54 | 165 | 1.0 | 4.0 | 0.00 | 0.00 | 0.00 | 66 | 1018.0 |
| 20260502020550 | 54 | 171 | 2.0 | 4.0 | 0.00 | 0.00 | 0.00 | 66 | 1018.0 |
| 20260502020048 | 54 | 176 | 2.0 | 3.0 | 0.00 | 0.00 | 0.00 | 66 | 1018.0 |
| 20260502015555 | 54 | 161 | 1.0 | 3.0 | 0.00 | 0.00 | 0.00 | 65 | 1018.1 |
| 20260502015030 | 54 | 161 | 2.0 | 3.0 | 0.00 | 0.00 | 0.00 | 66 | 1018.1 |
| 20260502014547 | 54 | 159 | 1.0 | 3.0 | 0.00 | 0.00 | 0.00 | 65 | 1018.1 |
| 20260502014031 | 54 | 150 | 1.0 | 3.0 | 0.00 | 0.00 | 0.00 | 65 | 1018.1 |
| 20260502013534 | 54 | 156 | 1.0 | 3.0 | 0.00 | 0.00 | 0.00 | 65 | 1018.1 |
| 20260502013056 | 54 | 186 | 1.0 | 3.0 | 0.00 | 0.00 | 0.00 | 66 | 1018.1 |
| 20260502012558 | 54 | 155 | 1.0 | 3.0 | 0.00 | 0.00 | 0.00 | 66 | 1018.1 |
| 20260502012039 | 54 | 148 | 1.0 | 3.0 | 0.00 | 0.00 | 0.00 | 67 | 1018.1 |
| 20260502011537 | 53 | 157 | 2.0 | 3.0 | 0.00 | 0.00 | 0.00 | 71 | 1018.2 |
| 20260502011056 | 53 | 144 | 1.0 | 2.0 | 0.00 | 0.00 | 0.00 | 69 | 1018.2 |
| 20260502010545 | 53 | 144 | 0.0 | 1.0 | 0.00 | 0.00 | 0.00 | 67 | 1018.2 |
| 20260502010036 | 53 | 144 | 0.0 | 1.0 | 0.00 | 0.00 | 0.00 | 67 | 1018.3 |
| 20260502005545 | 53 | 144 | 0.0 | 2.0 | 0.00 | 0.00 | 0.00 | 67 | 1018.3 |
| 20260502005038 | 53 | 157 | 1.0 | 2.0 | 0.00 | 0.00 | 0.00 | 68 | 1018.4 |
| 20260502004543 | 53 | 156 | 1.0 | 2.0 | 0.00 | 0.00 | 0.00 | 69 | 1018.4 |
| 20260502004045 | 53 | 156 | 1.0 | 2.0 | 0.00 | 0.00 | 0.00 | 69 | 1018.5 |
| 20260502003604 | 53 | 101 | 0.0 | 1.0 | 0.00 | 0.00 | 0.00 | 68 | 1018.5 |
| 20260502003050 | 54 | 101 | 0.0 | 1.0 | 0.00 | 0.00 | 0.00 | 66 | 1018.5 |
| 20260502002612 | 54 | 101 | 0.0 | 1.0 | 0.00 | 0.00 | 0.00 | 67 | 1018.6 |